Regional Weather Roundup
Issued by NWS Jackson, KY

Home | Current Version | Previous Version | Text Only | Print | Product List | Glossary On
Versions: 1 2 3 4 5 6 7 8 9 10 11 12 13 14 15 16 17 18 19 20 21 22 23 24 25 26 27 28 29 30 31 32 33 34 35 36 37 38 39 40 41 42 43 44 45 46 47 48 49 50
000
ASUS43 KJKL 240419
RWRJKL

EAST KENTUCKY HOURLY WEATHER ROUNDUP
NATIONAL WEATHER SERVICE JACKSON KY
1200 AM EDT THU APR 24 2014

NOTE: "FAIR" INDICATES FEW OR NO CLOUDS BELOW 12,000 FEET WITH
NO SIGNIFICANT WEATHER AND/OR OBSTRUCTIONS TO VISIBILITY.

* THESE REPORTS ARE NOT UNDER NWS QUALITY CONTROL AND MAY NOT
  REPORT WEATHER SUCH AS PRECIPITATION AND FOG.

KYZ079-080-083-085-087-088-110-112-115-119-120-240500
...EASTERN KENTUCKY...

CITY           SKY/WX    TMP DP  RH WIND       PRES   REMARKS
JACKSON        CLEAR     49  31  49 CALM      30.07S
LONDON         CLEAR     50  33  52 NE3       30.06F
SOMERSET*      CLEAR     50  32  50 CALM      30.07F
MIDDLESBORO*   CLEAR     46  37  71 CALM      30.07S
HARLAN APT*    CLEAR     45  34  65 CALM      30.06S
BLACK MTN*       N/A     41  25  52 N5          N/A
PIKEVILLE APT* CLEAR     50  28  43 N5        30.07R
BIG SANDY*     CLEAR     49  32  50 NE3       30.07S
ASHLAND*       CLEAR     48  32  53 CALM      30.08R
MOREHEAD APT*  CLEAR     50  32  50 MISG      30.10S
$$

KYZ035-036-041-042-044-050-067-078-099-240500
...CENTRAL KENTUCKY...

CITY           SKY/WX    TMP DP  RH WIND       PRES   REMARKS
MT STERLING*   CLEAR     46  34  61 E6        30.09S
FLEMING/MASON* CLEAR     46  34  61 NE7       30.09F
DANVILLE*      CLEAR     41  36  81 CALM      30.07F
RICHMOND*      CLEAR     48  32  53 NE6       30.07F
LEXINGTON      CLEAR     48  33  56 E6        30.07S
FRANKFORT      CLEAR     45  35  68 CALM      30.06S
$$

KYZ091>093-OHZ055-061-077-WVZ005-015-034-035-042-240500
...SOUTHERN OHIO/WEST VIRGINIA...

CITY           SKY/WX    TMP DP  RH WIND       PRES   REMARKS
COVINGTON      MOCLDY    54  32  43 NE8       30.08S
COLUMBUS       PTCLDY    45  30  55 E6        30.12S
DAYTON         PTCLDY    47  33  58 E9        30.10S
WILMINGTON     CLEAR     45  32  60 E8        30.08F
HUNTINGTON     CLEAR     50  32  50 NE10      30.07S
CHARLESTON     CLEAR     48  34  58 NE3       30.08R
PINEVILLE*     CLEAR     41  36  81 MISG      30.11S
BECKLEY        CLEAR     45  28  51 N5        30.06R
BLUEFIELD      CLEAR     49  26  41 N3        30.06R
$$

VAZ002-007-008-TNZ017-027-036-066-071-240500
...SOUTHWEST VIRGINIA/EAST TENNESSEE...

CITY           SKY/WX    TMP DP  RH WIND       PRES   REMARKS
WISE*          CLEAR     46  23  39 N6        30.07F
ABINGDON*      CLEAR     47  28  48 CALM      30.06S
BRISTOL        CLEAR     45  28  51 CALM      30.05R
KNOXVILLE      CLEAR     53  32  44 E3        30.02R
OAK RIDGE      CLEAR     54  33  45 CALM      30.04R
CROSSVILLE     CLEAR     51  29  42 NE3       30.04S
NASHVILLE      CLEAR     56  36  47 NE5       30.01F
$$

...KEY TO REMARKS...
VSB - VISIBILITY IN MILES
WCI - WIND CHILL INDEX
HX  - HEAT INDEX

$$



USA.gov is the U.S. government's official web portal to all federal, state and local government web resources and services.